Погода в Елизаветинке

Россия / Омская область     54°15′29″N   74°40′45″E
темп.,
°C
ветер,
м/с
пор.,
м/с
влажн.,
%
обл.,
%
осадки,
мм/ч
давл.,
гПа
погр.,
м
11 апреля, вс
вс1100:000в4692100 0.0 1042395
03:000всв4589100 0.0 1042359
06:00+1в4585100 0.0 1042186
09:00+1в3492100 0.0 104399
12:00+2вюв22100100 0.0 1042112
15:00+3всв129366 0.0 1042396
18:00+2в229985 0.0 104254
21:00−2ююв229968 0.0 104156
12 апреля, пн
пн1200:00−1ююз2397100 0.0 1040194
03:00−1юз349482 0.0 1038208
06:00−2зюз249795 0.0 1038113
09:00+1зюз3693100 0.0 1037192
12:00+4зюз4677100 0.0 1035304
15:00+8зюз5766100 0.0 1034471
18:00+7з4779100 0.0 1033161
21:00+3сз3485100 0.0 103447
13 апреля, вт
вт1300:00+3ссз3996100 0.0 1034204
03:00+2ссв3596100 0.0 103588
06:00+1с349686 0.0 103771
09:00+4с35803 0.0 1038232
12:00+7ссз45562 0.0 1039785
15:00+9ссз45441 0.0 1038948
18:00+9сз45455 0.0 1038907
21:00+6ссз226248 0.0 103814
14 апреля, ср
ср1400:00+4зсз22680 0.0 103811
03:00+3з33735 0.0 103722
06:00+2зюз337613 0.0 103735
09:00+6зюз46615 0.0 1036239
12:00+11зюз574156 0.0 1034769
15:00+13з6735100 0.0 10311021
18:00+12з5842100 0.0 1029749
21:00+9зюз486098 0.0 1028126
15 апреля, чт
чт1500:00+7з35705 0.0 102764
03:00+6з34765 0.0 102648
06:00+5з33811 0.0 102535
09:00+9з35681 0.0 1024212
12:00+14з45590 0.0 1023645
15:00+16з45557 0.0 10211194
18:00+17з45530 0.0 10201360
21:00+13зюз33705 0.0 101931